Overview Statistics Trail Chart Weather Telemetry Raw packets
 

This is the latest recevied weather packets stored in our database for station/object K9MWD. If no packets are shown the sender has not sent any weather packets the latest 10 day(s).

<< 15 16 17 18 19 20 21 >>
Time Temp. Humidity Pressure Rain* Wind** Luminosity Snow
1788530098 26.67° C 86% 1015.2 hPa 0 mm - 272 W/m² -
1788529795 26.67° C 87% 1015 hPa 0 mm - 144 W/m² -
1788529494 26.11° C 87% 1015.1 hPa 0 mm - 167 W/m² -
1788529189 26.11° C 88% 1015.1 hPa 0 mm - 123 W/m² -
1788528884 26.11° C 89% 1015.1 hPa 0 mm - 111 W/m² -
1788528579 25.56° C 89% 1015.2 hPa 0 mm - 113 W/m² -
1788528275 25.56° C 89% 1014.8 hPa 0 mm - 90 W/m² -
1788527974 25.56° C 90% 1014.5 hPa 0 mm - 74 W/m² -
1788527669 25.56° C 90% 1014.8 hPa 0 mm - 66 W/m² -
1788527365 25° C 90% 1014.6 hPa 0 mm - 61 W/m² -
1788527064 25° C 90% 1014.6 hPa 0 mm - 46 W/m² -
1788526759 25° C 90% 1014.6 hPa 0 mm - 56 W/m² -
1788526456 25° C 90% 1014.5 hPa 0 mm - 55 W/m² -
1788526155 25° C 90% 1014.4 hPa 0 mm - 56 W/m² -
1788525851 25° C 90% 1014.3 hPa 0 mm - 49 W/m² -
1788525547 25° C 90% 1014.1 hPa 0 mm - 41 W/m² -
1788525247 25° C 90% 1014.3 hPa 0 mm - 32 W/m² -
1788524942 25° C 91% 1014.3 hPa 0 mm - 25 W/m² -
1788524641 24.44° C 91% 1014.1 hPa 0 mm - 19 W/m² -
1788524336 24.44° C 91% 1014.1 hPa 0 mm - 14 W/m² -
1788524033 24.44° C 91% 1014 hPa 0 mm - 10 W/m² -
1788523729 24.44° C 91% 1014.1 hPa 0 mm - 7 W/m² -
1788523425 24.44° C 91% 1013.9 hPa 0 mm - 4 W/m² -
1788523119 24.44° C 91% 1013.9 hPa 0 mm - 2 W/m² -
1788522815 24.44° C 90% 1013.8 hPa 0 mm - 1 W/m² -

* Rain latest hour (hover to see other rain measurements)
** Current wind speed in m/s (hover to see current wind gust speed)